Location: Maccacari
(45.1333°N, 11.1333°E)
Time: 04:15:33
(UTC+00:00)

S-56A Canister/Altair - Pass Details

Date: 28 June 2021
Orbit: 631 x 2501 km, 38.9° (Epoch: 03 August)

Event Time Altitude Azimuth Distance (km) Brightness Sun altitude
Exits shadow 02:15:19 13° 234° (SW) 2,026 9.1 -10.7°
Maximum altitude 02:19:13 36° 172° (S) 1,055 7.9 -10.2°
Drops below altitude 10° 02:23:16 10° 105° (ESE) 2,006 10.0 -9.7°
Sets 02:25:39 0° 97° (E) 2,929 11.1 -9.5°
